Date String (YYYY-MM-DD hh:mm:ss) UTC,Instrument flags,absolute air pressure of the measurement (hPa),sample flow rate (lpm),inlet stack bypass flow (lpm),air temperature of the measurement (°C),ambient temperature measured by the external sensor (°C),aerosol sample conditioner tube jacket temperature (°C),OPC LED temperature (°C),internal box temperature (°C),relative humidity of the measurement (%),span deviation,mass concentration of particles derived from Lorenz-Mie calculation of OPC scattering (μg/m³),mass concentration of particles derived from Lorenz-Mie calculation of OPC scattering (μg/m³),mass concentration of particles derived from Lorenz-Mie calculation of OPC scattering (μg/m³)
DateTimeUTC,F1_M11,P_M11,Q1_M11,Q2_M11,T1_M11,T2_M11,T3_M11,T4_M11,T5_M11,U1_M11,ZSPAN_M11,X0_M11,X2_M11,X1_M11
2024-04-08 08:00:00,SystemResetWarning,0823.5,5.00,000.00,018.4,017.7,000.0,027.0,020.1,012.9,0000.0,0004.26,0001.94,0001.13
2024-04-08 08:01:00,SystemResetWarning,0823.5,5.00,000.00,018.4,017.7,000.0,027.0,020.0,012.9,0000.0,0004.46,0002.00,0001.14
2024-04-08 08:02:00,SystemResetWarning,0823.6,5.01,000.00,018.4,017.7,000.0,027.0,020.0,012.9,0000.0,0004.40,0001.96,0001.12
2024-04-08 08:03:00,SystemResetWarning,0823.6,5.00,000.00,018.4,017.7,000.0,027.0,020.0,012.9,0000.0,0004.31,0001.93,0001.12
2024-04-08 08:04:00,SystemResetWarning,0823.5,5.00,000.00,018.3,017.6,000.0,027.0,020.0,012.9,0000.0,0004.20,0001.86,0001.11
2024-04-08 08:05:00,SystemResetWarning,0823.5,5.00,000.00,018.3,017.6,000.0,026.9,020.0,013.0,0000.0,0004.16,0001.83,0001.11
2024-04-08 08:06:00,SystemResetWarning,0823.5,5.00,000.00,018.3,017.6,000.0,026.9,020.0,013.2,0000.0,0004.22,0001.84,0001.11
2024-04-08 08:07:00,SystemResetWarning,0823.5,5.00,000.00,018.3,017.6,000.0,026.9,020.0,012.9,0000.0,0004.07,0001.77,0001.11
2024-04-08 08:08:00,SystemResetWarning,0823.5,5.00,000.00,018.3,017.6,000.0,026.9,020.0,012.7,0000.0,0003.94,0001.74,0001.11
2024-04-08 08:09:00,SystemResetWarning,0823.5,5.00,000.00,018.3,017.6,000.0,026.9,020.0,012.8,0000.0,0003.91,0001.72,0001.11
2024-04-08 08:10:00,SystemResetWarning,0823.4,5.00,000.00,018.3,017.6,000.0,026.9,020.0,012.9,0000.0,0003.22,0001.72,0001.12
2024-04-08 08:11:00,SystemResetWarning,0823.5,5.00,000.00,018.3,017.6,000.0,026.9,020.0,013.0,0000.0,0002.94,0001.66,0001.12
2024-04-08 08:12:00,SystemResetWarning,0823.5,5.00,000.00,018.3,017.6,000.0,026.9,020.0,013.0,0000.0,0002.87,0001.62,0001.12
2024-04-08 08:13:00,SystemResetWarning,0823.5,5.00,000.00,018.3,017.6,000.0,026.9,020.0,013.0,0000.0,0003.15,0001.60,0001.11
2024-04-08 08:14:00,SystemResetWarning,0823.4,5.00,000.00,018.3,017.5,000.0,026.9,020.0,013.0,0000.0,0003.16,0001.58,0001.09
2024-04-08 08:15:00,SystemResetWarning,0823.4,5.00,000.00,018.3,017.6,000.0,026.9,020.0,012.7,0000.0,0003.11,0001.59,0001.09
2024-04-08 08:16:00,SystemResetWarning,0823.4,5.00,000.00,018.3,017.5,000.0,026.9,020.0,012.5,0000.0,0002.97,0001.54,0001.07
2024-04-08 08:17:00,SystemResetWarning,0823.4,5.00,000.00,018.3,017.5,000.0,026.9,020.0,012.3,0000.0,0002.95,0001.54,0001.07
2024-04-08 08:18:00,SystemResetWarning,0823.4,4.99,000.00,018.3,017.5,000.0,026.9,020.0,012.6,0000.0,0003.06,0001.58,0001.08
2024-04-08 08:19:00,SystemResetWarning,0823.4,5.00,000.00,018.3,017.5,000.0,026.9,020.0,012.7,0000.0,0003.06,0001.57,0001.08
2024-04-08 08:20:00,SystemResetWarning,0823.4,5.00,000.00,018.2,017.5,000.0,026.9,020.0,012.5,0000.0,0003.12,0001.57,0001.08
2024-04-08 08:21:00,SystemResetWarning,0823.4,5.00,000.00,018.3,017.5,000.0,026.9,020.0,012.5,0000.0,0003.43,0001.52,0001.07
2024-04-08 08:22:00,SystemResetWarning,0823.4,4.99,000.00,018.2,017.5,000.0,026.9,020.0,012.4,0000.0,0003.49,0001.49,0001.05
2024-04-08 08:23:00,SystemResetWarning,0823.4,5.00,000.00,018.2,017.5,000.0,026.9,020.0,012.5,0000.0,0003.31,0001.42,0001.03
2024-04-08 08:24:00,SystemResetWarning,0823.3,5.01,000.00,018.2,017.5,000.0,026.9,020.0,012.2,0000.0,0003.00,0001.42,0001.02
2024-04-08 08:25:00,SystemResetWarning,0823.4,5.00,000.00,018.2,017.5,000.0,026.9,020.0,012.2,0000.0,0002.98,0001.45,0001.02
2024-04-08 08:26:00,SystemResetWarning,0823.4,5.01,000.00,018.2,017.5,000.0,026.9,020.0,012.2,0000.0,0002.95,0001.44,0001.01
2024-04-08 08:27:00,SystemResetWarning,0823.4,5.00,000.00,018.2,017.5,000.0,026.9,020.0,012.3,0000.0,0003.12,0001.52,0001.03
2024-04-08 08:28:00,SystemResetWarning,0823.4,5.01,000.00,018.3,017.5,000.0,026.9,020.0,012.3,0000.0,0003.21,0001.54,0001.04
2024-04-08 08:29:00,SystemResetWarning,0823.4,5.00,000.00,018.3,017.5,000.0,026.9,020.0,012.5,0000.0,0003.46,0001.53,0001.04
2024-04-08 08:30:00,SystemResetWarning,0823.4,5.00,000.00,018.2,017.5,000.0,026.9,020.0,012.5,0000.0,0003.42,0001.51,0001.04
2024-04-08 08:31:00,SystemResetWarning,0823.3,4.98,000.00,018.2,017.5,000.0,026.9,020.0,012.5,0000.0,0003.31,0001.50,0001.04
2024-04-08 08:32:00,SystemResetWarning,0823.3,5.00,000.00,018.2,017.5,000.0,026.9,020.0,012.5,0000.0,0003.08,0001.54,0001.04
2024-04-08 08:33:00,SystemResetWarning,0823.3,5.00,000.00,018.2,017.4,000.0,026.9,020.0,012.4,0000.0,0003.03,0001.56,0001.06
2024-04-08 08:34:00,SystemResetWarning,0823.4,5.00,000.00,018.2,017.4,000.0,026.9,020.0,012.2,0000.0,0003.20,0001.63,0001.08
2024-04-08 08:35:00,SystemResetWarning,0823.4,5.01,000.00,018.2,017.4,000.0,026.9,020.0,012.1,0000.0,0003.21,0001.64,0001.09
2024-04-08 08:36:00,SystemResetWarning,0823.3,5.00,000.00,018.2,017.4,000.0,026.9,020.0,012.0,0000.0,0003.14,0001.64,0001.10
2024-04-08 08:37:00,SystemResetWarning,0823.4,5.00,000.00,018.3,017.6,000.0,027.0,020.1,011.6,0000.0,0003.24,0001.70,0001.12
2024-04-08 08:38:00,SystemResetWarning,0823.5,4.99,000.00,018.4,018.4,000.0,027.1,020.5,012.1,0000.0,0003.24,0001.69,0001.13
2024-04-08 08:39:00,SystemResetWarning,0823.5,4.98,000.00,018.6,018.7,000.0,027.0,020.8,011.9,0000.0,0003.28,0001.69,0001.13
2024-04-08 08:40:00,SystemResetWarning,0823.5,4.99,000.00,018.6,018.6,000.0,027.0,020.7,012.1,0000.0,0003.34,0001.72,0001.13
2024-04-08 08:41:00,SystemResetWarning,0823.4,5.01,000.00,018.6,018.5,000.0,027.0,020.5,012.5,0000.0,0003.38,0001.75,0001.13
2024-04-08 08:42:00,SystemResetWarning,0823.4,5.01,000.00,018.6,018.3,000.0,027.0,020.4,012.3,0000.0,0003.41,0001.77,0001.15
2024-04-08 08:43:00,SystemResetWarning,0823.4,5.00,000.00,018.6,018.2,000.0,027.0,020.3,012.1,0000.0,0003.44,0001.79,0001.16
2024-04-08 08:44:00,SystemResetWarning,0823.4,4.98,000.00,018.6,018.1,000.0,027.0,020.3,012.6,0000.0,0003.70,0001.87,0001.18
2024-04-08 08:45:00,SystemResetWarning,0823.4,5.01,000.00,018.5,017.9,000.0,027.0,020.2,012.8,0000.0,0003.63,0001.84,0001.18
2024-04-08 08:46:00,SystemResetWarning,0823.5,5.01,000.00,018.5,017.8,000.0,027.0,020.2,012.9,0000.0,0003.73,0001.87,0001.19
2024-04-08 08:47:00,SystemResetWarning,0823.5,5.01,000.00,018.5,017.8,000.0,027.0,020.1,012.9,0000.0,0003.80,0001.87,0001.20
2024-04-08 08:48:00,SystemResetWarning,0823.5,5.00,000.00,018.5,017.8,000.0,027.0,020.1,012.9,0000.0,0003.76,0001.85,0001.20
2024-04-08 08:49:00,SystemResetWarning,0823.5,4.99,000.00,018.4,017.8,000.0,027.0,020.1,012.9,0000.0,0003.73,0001.87,0001.21
2024-04-08 08:50:00,SystemResetWarning,0823.5,4.99,000.00,018.4,017.8,000.0,027.0,020.1,012.9,0000.0,0003.67,0001.86,0001.21
2024-04-08 08:51:00,SystemResetWarning,0823.4,5.00,000.00,018.4,017.7,000.0,027.0,020.1,012.9,0000.0,0003.34,0001.81,0001.22
2024-04-08 08:52:00,SystemResetWarning,0823.4,5.00,000.00,018.4,017.7,000.0,027.0,020.1,013.0,0000.0,0003.31,0001.80,0001.23
2024-04-08 08:53:00,SystemResetWarning,0823.4,5.01,000.00,018.4,017.7,000.0,027.0,020.1,013.1,0000.0,0003.34,0001.83,0001.23
2024-04-08 08:54:00,SystemResetWarning,0823.4,5.01,000.00,018.4,017.7,000.0,027.0,020.1,013.1,0000.0,0003.79,0001.81,0001.23
2024-04-08 08:55:00,SystemResetWarning,0823.4,4.99,000.00,018.4,017.7,000.0,027.0,020.1,013.2,0000.0,0004.19,0001.80,0001.23
2024-04-08 08:56:00,SystemResetWarning,0823.4,4.99,000.00,018.4,017.7,000.0,027.0,020.1,013.3,0000.0,0004.21,0001.83,0001.24
2024-04-08 08:57:00,SystemResetWarning,0823.4,5.01,000.00,018.4,017.7,000.0,027.0,020.1,013.4,0000.0,0004.34,0001.86,0001.24
2024-04-08 08:58:00,SystemResetWarning,0823.4,5.01,000.00,018.4,017.6,000.0,027.0,020.0,013.4,0000.0,0004.35,0001.89,0001.24
2024-04-08 08:59:00,SystemResetWarning,0823.5,5.00,000.00,018.3,017.6,000.0,026.9,020.0,013.5,0000.0,0004.43,0001.91,0001.25
